CDT,Max TemperatureF,Mean TemperatureF,Min TemperatureF,Max Dew PointF,MeanDew PointF,Min DewpointF,Max Humidity, Mean Humidity, Min Humidity, Max Sea Level PressureIn, Mean Sea Level PressureIn, Min Sea Level PressureIn, Max VisibilityMiles, Mean VisibilityMiles, Min VisibilityMiles, Max Wind SpeedMPH, Mean Wind SpeedMPH, Max Gust SpeedMPH,PrecipitationIn, CloudCover, Events, WindDirDegrees
2013-4-1,35,27,18,20,14,10,81,61,40,30.35,30.28,30.16,10,10,10,23,13,29,0.00,1,,341
2013-4-2,43,31,19,24,20,15,88,66,43,30.37,30.35,30.31,10,10,10,15,6,18,0.00,1,,347
2013-4-3,51,37,22,31,26,19,92,69,46,30.39,30.30,30.15,10,10,10,30,15,37,0.00,1,,163
2013-4-4,53,41,29,31,28,25,82,61,39,30.21,30.14,30.08,10,10,7,22,13,30,T,1,Rain,317
2013-4-5,50,39,27,33,28,24,92,69,46,30.23,30.07,29.78,10,10,10,28,15,33,0.00,3,,101
2013-4-6,59,46,32,44,38,31,89,73,57,29.81,29.64,29.51,10,8,5,26,17,33,0.06,3,Rain,277
2013-4-7,52,42,31,45,34,28,100,83,66,29.96,29.85,29.69,9,5,1,20,9,25,0.09,6,Rain,41
2013-4-8,61,48,35,49,44,35,100,82,64,29.96,29.75,29.61,8,4,0,26,12,31,T,6,Fog,25
2013-4-9,42,38,33,41,35,32,100,95,89,30.09,29.94,29.84,10,4,0,36,24,43,2.12,8,Fog-Rain-Snow-Thunderstorm,28
2013-4-10,34,32,30,32,30,28,100,95,89,30.06,29.96,29.79,10,5,1,37,17,44,0.26,8,Rain-Snow,43
2013-4-11,34,33,31,32,31,30,100,95,89,29.81,29.65,29.58,10,2,0,18,12,21,0.34,8,Fog-Rain-Snow,46
2013-4-12,34,31,28,30,26,24,100,88,75,29.94,29.78,29.63,10,9,2,22,15,26,T,8,Snow,321
2013-4-13,40,33,26,31,26,23,85,70,54,29.99,29.92,29.84,10,10,10,17,10,22,0.00,6,,296
2013-4-14,54,44,33,48,36,30,96,83,70,29.82,29.58,29.37,10,9,4,33,19,41,0.03,6,,124
2013-4-15,41,36,31,30,27,22,82,73,64,30.08,29.84,29.59,10,10,10,31,19,38,0.00,5,,271
2013-4-16,47,39,30,31,28,26,92,71,49,30.31,30.22,30.07,10,10,8,17,10,23,0.00,3,,342
2013-4-17,39,37,34,36,33,29,100,85,70,30.29,30.01,29.87,10,5,1,24,17,31,0.63,8,Rain-Snow-Thunderstorm,37
2013-4-18,34,32,30,32,29,27,96,91,85,29.87,29.69,29.61,10,2,0,35,23,45,0.20,8,Fog-Rain-Snow,342
2013-4-19,34,29,24,27,24,20,92,81,69,30.09,29.83,29.64,10,8,2,32,22,39,T,4,,314
2013-4-20,43,32,21,29,22,16,84,64,43,30.30,30.23,30.11,10,10,10,17,9,21,0.00,2,,125
2013-4-21,59,48,36,47,38,28,92,77,61,30.24,30.13,30.02,10,10,7,35,15,43,0.03,7,Rain,195
2013-4-22,38,34,29,35,32,28,100,93,85,30.19,30.12,30.04,10,3,0,29,18,35,0.44,8,Fog-Rain-Snow,13
2013-4-23,34,28,22,28,23,18,92,74,56,30.23,30.19,30.13,10,9,6,25,16,32,0.00,3,,333
2013-4-24,52,38,23,36,27,20,88,67,45,30.15,30.08,29.96,10,10,9,33,15,43,T,1,,265
2013-4-25,60,44,27,36,27,21,81,59,36,30.26,30.15,30.04,10,10,10,22,13,28,0.00,0,,239
2013-4-26,73,57,41,40,36,32,82,52,22,30.15,30.05,29.99,10,10,10,24,12,29,0.00,0,,256
2013-4-27,73,55,37,46,40,33,85,59,33,30.16,30.05,29.92,10,10,10,21,9,26,0.00,0,,208
2013-4-28,82,64,45,50,44,40,92,58,23,29.92,29.78,29.65,10,9,6,40,15,51,0.01,1,Rain,196
2013-4-29,76,61,46,55,49,41,93,67,41,29.81,29.70,29.48,10,10,10,17,10,22,0.08,1,Rain-Thunderstorm,77
2013-4-30,69,60,50,59,44,26,84,54,24,29.95,29.67,29.42,10,10,10,29,15,36,0.09,2,Rain,322